Home   Weather   Szczecin   Past weeks

Flag for Poland Past Weather in Szczecin, Poland — Yesterday and Last 2 Weeks

Now
46 °F

Clear.


Feels Like: 43 °F
Forecast: 49 / 71 °F
Wind: 7 mph from Southeast

Location: Szczecin Airport

Current Time: Sep 25, 2016 at 4:16:03 AM

Latest Report: Sep 25, 2016 at 4:00 AM


Visibility: 10 mi

Pressure: 30.24 "Hg

Humidity: 93%

Dew Point: 45 °F

Location of SzczecinLocation

Past Weather in Szczecin — Graph

°F

Szczecin Temperature Yesterday

Maximum temperature yesterday: 64 °F (at 1:00 PM)
Minimum temperature yesterday: 48 °F (at 9:00 PM)
Average temperature yesterday: 56 °F

High & Low Weather Summary for the Past Weeks

 TemperatureHumidityPressure
High84 °F (Sep 11, 4:30 PM)100% (Sep 10, 3:00 AM)30.27 "Hg (Sep 10, 3:00 AM)
Low39 °F (Sep 22, 6:00 AM)34% (Sep 14, 1:00 PM)29.89 "Hg (Sep 16, 3:00 PM)
Average62 °F72%30.09 "Hg
* Reported Sep 10 3:00 AM — Sep 25 3:00 AM, Szczecin, Weather by CustomWeather, © 2016

Note: Actual official high and low records may vary slightly from our data, if they occured in-between our weather recording intervals... More about our weather records

Advertising

Szczecin Weather History for the Previous 24 Hours

Scroll right to see more
 ConditionsComfort  
Time TempWeatherWind HumidityBarometerVisibility
3:00 AM
Sun, Sep 25
48 °FClear.8 mph87%30.24 "Hg10 mi
2:30 AM48 °FClear.8 mph94%30.24 "Hg10 mi
2:00 AM48 °FClear.7 mph87%30.24 "Hg10 mi
1:30 AM50 °FClear.6 mph82%30.24 "Hg10 mi
1:00 AM46 °FClear.5 mph93%30.24 "Hg10 mi
12:30 AM48 °FClear.6 mph94%30.24 "Hg10 mi
12:00 AM48 °FClear.6 mph94%30.24 "Hg10 mi
11:30 PM
Sat, Sep 24
48 °FClear.5 mph94%30.27 "Hg10 mi
11:00 PM48 °FClear.5 mph94%30.27 "Hg10 mi
10:30 PM48 °FClear.5 mph94%30.27 "Hg10 mi
10:00 PM48 °FClear.3 mph94%30.27 "Hg10 mi
9:30 PM48 °FClear.3 mph94%30.27 "Hg10 mi
9:00 PM48 °FClear.3 mph94%30.27 "Hg10 mi
8:30 PM50 °FClear.1 mph94%30.27 "Hg10 mi
8:00 PM52 °FClear.3 mph88%30.24 "Hg10 mi
7:30 PM55 °FClear.1 mph82%30.27 "Hg10 mi
7:00 PM55 °FClear.1 mph82%30.24 "Hg10 mi
6:30 PM61 °FSunny.5 mph63%30.24 "Hg10 mi
6:00 PM63 °FPassing clouds.3 mph52%30.24 "HgN/A
5:30 PM64 °FPassing clouds.6 mph52%30.24 "HgN/A
5:00 PM64 °FSunny.8 mph49%30.24 "Hg10 mi
4:30 PM64 °FPassing clouds.8 mph49%30.24 "HgN/A
4:00 PM64 °FPassing clouds.10 mph49%30.24 "HgN/A
3:30 PM64 °FPassing clouds.7 mph49%30.27 "HgN/A
3:00 PM64 °FPassing clouds.9 mph49%30.27 "HgN/A
2:30 PM64 °FPassing clouds.10 mph52%30.27 "HgN/A
2:00 PM64 °FPassing clouds.9 mph56%30.27 "HgN/A
1:30 PM63 °FScattered clouds.12 mph59%30.27 "HgN/A
1:00 PM64 °FScattered clouds.12 mph56%30.27 "HgN/A
12:30 PM63 °FScattered clouds.10 mph64%30.27 "HgN/A
12:00 PM63 °FScattered clouds.7 mph64%30.27 "HgN/A
11:30 AM63 °FScattered clouds.9 mph68%30.27 "HgN/A
11:00 AM61 °FScattered clouds.10 mph77%30.27 "HgN/A
10:30 AM59 °FScattered clouds.8 mph88%30.27 "HgN/A
10:00 AM57 °FPassing clouds.8 mph88%30.27 "HgN/A
9:30 AM55 °FScattered clouds.8 mph94%30.27 "HgN/A
9:00 AM54 °FScattered clouds.7 mph94%30.24 "HgN/A
8:30 AM54 °FScattered clouds.5 mph94%30.24 "Hg4 mi
8:00 AM52 °FFog.2 mph94%30.24 "Hg3 mi
7:30 AM50 °FFog.2 mph100%30.24 "Hg2 mi
7:00 AM52 °FFog.3 mph94%30.21 "Hg2 mi
6:30 AM52 °FFog.6 mph100%30.21 "Hg3 mi
6:00 AM54 °FPartly cloudy.8 mph94%30.21 "Hg4 mi
5:30 AM54 °FPartly cloudy.8 mph94%30.18 "Hg4 mi
5:00 AM54 °FClear.7 mph94%30.18 "Hg4 mi
4:30 AM54 °FFog.6 mph94%30.18 "Hg2 mi
4:00 AM54 °FFog.6 mph100%30.18 "Hg1 mi
Weather by CustomWeather, © 2016

See weather overviewHow to use our weather pages